sat.trackr.live / text

‹ back to catalog

ASTRA 1P (SES-24)

NORAD 60086 · 2024-115A

PAYLOAD ACTIVE UNKNOWN

§ Identity

Operator
Country
SES
Launch date
2024-06-20
Launch site
AFETR
Launch vehicle
Mass (kg)
RCS (m²)

Purposes: comms

External: N2YO · Heavens-Above · Gunter

§ Orbital elements

Epoch: 2026-09-19T15:21:08.133408Z

Period
1,436.09 min
Inclination
0.0602°
Eccentricity
0.0001979
Mean motion
1.00271987 rev/d
Perigee alt
35,778.2 km
Apogee alt
35,794.9 km
Semi-major
42,164.7 km
B*
0.0000e+0
RAAN
343.9545°
Arg perigee
244.0752°
Mean anomaly
20.0129°
Rev number
814

§ Raw data

ASTRA 1P (SES-24)1 60086U 24115A   26262.63967747  .00000116  00000+0  00000+0 0  99962 60086   0.0602 343.9545 0001979 244.0752  20.0129  1.00271987  8145

JSON: /api/v1/satellites/60086 · /tle

For live sub-satellite position, see the globe view (requires WebGL).

§ Visibility from observer

Set your observer location to see the next 7 days of passes ≥ 10°. The values pass through the URL so the page stays shareable.

No JS? Fill the form by hand. The geolocation button needs JavaScript.